sat.trackr.live / text

‹ back to catalog

STARLINK-32601

NORAD 61973 · 2024-210Q

PAYLOAD ACTIVE UNKNOWN

§ Identity

Operator
Country
US
Launch date
2024-11-14
Launch site
AFETR
Launch vehicle
Mass (kg)
RCS (m²)

Purposes: comms

External: N2YO · Heavens-Above · Gunter

§ Orbital elements

Epoch: 2026-09-21T03:03:11.901312Z

Period
94.27 min
Inclination
42.9999°
Eccentricity
0.0001017
Mean motion
15.27571409 rev/d
Perigee alt
482.4 km
Apogee alt
483.8 km
Semi-major
6,861.2 km
B*
7.4628e-4
RAAN
155.7437°
Arg perigee
270.0410°
Mean anomaly
90.0325°
Rev number
10,477

§ Raw data

STARLINK-326011 61973U 24210Q   26264.12722108  .00020325  00000+0  74628-3 0  99992 61973  42.9999 155.7437 0001017 270.0410  90.0325 15.27571409104774

JSON: /api/v1/satellites/61973 · /tle

For live sub-satellite position, see the globe view (requires WebGL).

§ Visibility from observer

Set your observer location to see the next 7 days of passes ≥ 10°. The values pass through the URL so the page stays shareable.

No JS? Fill the form by hand. The geolocation button needs JavaScript.